When you browse on this site, cookies collect data to enhance your experience and personalize the content and advertising you see.
Visit our Privacy Policy to learn more. By continuing to use the site, you agree to this use of cookies and data.
  • In Lithuania
  • List of Countries
  • For 7 days
  • Water Temperature
  • Weather Map
  • Weather Widgets
  • user-avatar
    Login

    Hourly Weather Graz

    Today, 19 September, Thursday

    Time Temperature Precipitation Wind Pressure Humidity
    00:00 +11°C° 0 mm 0 mps 729 mmHg 77%
    01:00 +11°C° 0 mm 0 mps 729 mmHg 76%
    02:00 +10°C° 0 mm 0 mps 729 mmHg 77%
    03:00 +10°C° 0 mm 0 mps 729 mmHg 78%
    04:00 +10°C° 0 mm 1 mps 729 mmHg 80%
    05:00 +10°C° 0 mm 1 mps 729 mmHg 78%
    06:00 +11°C° 0 mm 1 mps 729 mmHg 77%
    07:00 +11°C° 0 mm 1 mps 729 mmHg 75%
    08:00 +12°C° 0 mm 1 mps 729 mmHg 68%
    09:00 +14°C° 0 mm 1 mps 730 mmHg 61%
    10:00 +16°C° 0 mm 1 mps 730 mmHg 54%
    11:00 +16°C° 0 mm 1 mps 730 mmHg 51%
    12:00 +18°C° 0 mm 1 mps 730 mmHg 49%
    13:00 +19°C° 0 mm 1 mps 730 mmHg 47%
    14:00 +18°C° 0 mm 1 mps 729 mmHg 48%
    15:00 +18°C° 0 mm 1 mps 729 mmHg 49%
    16:00 +17°C° 0 mm 2 mps 729 mmHg 50%
    17:00 +15°C° 0 mm 1 mps 729 mmHg 57%
    18:00 +13°C° 0 mm 1 mps 730 mmHg 65%
    19:00 +11°C° 0 mm 1 mps 730 mmHg 73%
    20:00 +11°C° 0 mm 1 mps 731 mmHg 74%
    21:00 +10°C° 0 mm 1 mps 731 mmHg 75%
    22:00 +9°C° 0 mm 0 mps 732 mmHg 76%
    23:00 +9°C° 0 mm 1 mps 732 mmHg 78%

    Tomorrow, 20 September, Friday

    Time Temperature Precipitation Wind Pressure Humidity
    00:00 +8°C° 0 mm 1 mps 731 mmHg 80%
    01:00 +8°C° 0 mm 1 mps 731 mmHg 81%
    02:00 +7°C° 0 mm 1 mps 731 mmHg 82%
    03:00 +7°C° 0 mm 1 mps 731 mmHg 83%
    04:00 +7°C° 0 mm 1 mps 731 mmHg 84%
    05:00 +7°C° 0 mm 1 mps 731 mmHg 81%
    06:00 +8°C° 0 mm 1 mps 731 mmHg 78%
    07:00 +8°C° 0 mm 1 mps 731 mmHg 75%
    08:00 +11°C° 0 mm 1 mps 731 mmHg 66%
    09:00 +13°C° 0 mm 1 mps 732 mmHg 57%
    10:00 +16°C° 0 mm 1 mps 732 mmHg 48%
    11:00 +16°C° 0 mm 1 mps 731 mmHg 45%
    12:00 +18°C° 0 mm 1 mps 731 mmHg 42%
    13:00 +19°C° 0 mm 1 mps 730 mmHg 40%
    14:00 +18°C° 0 mm 1 mps 730 mmHg 41%
    15:00 +18°C° 0 mm 1 mps 730 mmHg 43%
    16:00 +16°C° 0 mm 1 mps 729 mmHg 45%
    17:00 +14°C° 0 mm 1 mps 729 mmHg 52%
    18:00 +12°C° 0 mm 1 mps 730 mmHg 59%
    19:00 +9°C° 0 mm 0 mps 730 mmHg 65%
    20:00 +9°C° 0 mm 0 mps 730 mmHg 66%
    21:00 +9°C° 0 mm 0 mps 730 mmHg 67%
    22:00 +8°C° 0 mm 0 mps 730 mmHg 68%
    23:00 +8°C° 0 mm 0 mps 730 mmHg 69%

    Day after tomorrow, 21 September, Saturday

    Time Temperature Precipitation Wind Pressure Humidity
    00:00 +8°C° 0 mm 0 mps 730 mmHg 70%
    01:00 +7°C° 0 mm 0 mps 730 mmHg 70%
    02:00 +7°C° 0 mm 0 mps 729 mmHg 71%
    03:00 +8°C° 0 mm 1 mps 729 mmHg 71%
    04:00 +8°C° 0 mm 1 mps 729 mmHg 72%
    05:00 +8°C° 0 mm 1 mps 729 mmHg 70%
    06:00 +8°C° 0 mm 0 mps 729 mmHg 68%
    07:00 +9°C° 0 mm 0 mps 729 mmHg 66%
    08:00 +12°C° 0 mm 1 mps 729 mmHg 59%
    09:00 +14°C° 0 mm 1 mps 729 mmHg 52%
    10:00 +16°C° 0 mm 1 mps 729 mmHg 45%
    11:00 +18°C° 0 mm 1 mps 729 mmHg 43%
    12:00 +18°C° 0 mm 2 mps 728 mmHg 42%
    13:00 +19°C° 0 mm 2 mps 728 mmHg 40%
    14:00 +19°C° 0 mm 2 mps 727 mmHg 43%
    15:00 +19°C° 0 mm 2 mps 727 mmHg 45%
    16:00 +18°C° 0 mm 2 mps 726 mmHg 48%
    17:00 +16°C° 0 mm 1 mps 726 mmHg 56%
    18:00 +14°C° 0 mm 1 mps 726 mmHg 65%
    19:00 +11°C° 0 mm 1 mps 726 mmHg 73%
    20:00 +11°C° 0 mm 1 mps 726 mmHg 74%
    21:00 +10°C° 0 mm 1 mps 726 mmHg 75%
    22:00 +10°C° 0 mm 1 mps 726 mmHg 77%
    23:00 +10°C° 0 mm 1 mps 725 mmHg 78%

    22 September, Sunday

    Time Temperature Precipitation Wind Pressure Humidity
    00:00 +9°C° 0 mm 1 mps 725 mmHg 80%
    01:00 +9°C° 0 mm 1 mps 725 mmHg 81%
    02:00 +9°C° 0 mm 1 mps 724 mmHg 82%
    03:00 +9°C° 0 mm 1 mps 724 mmHg 82%
    04:00 +9°C° 0 mm 1 mps 724 mmHg 82%
    05:00 +9°C° 0 mm 1 mps 724 mmHg 80%
    06:00 +10°C° 0 mm 1 mps 724 mmHg 77%
    07:00 +11°C° 0 mm 1 mps 723 mmHg 75%
    08:00 +13°C° 0 mm 1 mps 723 mmHg 68%
    09:00 +15°C° 0 mm 1 mps 724 mmHg 61%
    10:00 +19°C° 0 mm 1 mps 724 mmHg 54%
    11:00 +20°C° 0 mm 1 mps 723 mmHg 54%
    12:00 +21°C° 0 mm 1 mps 723 mmHg 53%
    13:00 +23°C° 0 mm 1 mps 723 mmHg 52%
    14:00 +22°C° 0 mm 1 mps 722 mmHg 56%
    15:00 +22°C° 0 mm 1 mps 722 mmHg 59%
    16:00 +22°C° 0 mm 1 mps 721 mmHg 63%
    17:00 +20°C° 0 mm 1 mps 721 mmHg 71%
    18:00 +18°C° 0 mm 1 mps 721 mmHg 80%
    19:00 +15°C° 0 mm 1 mps 720 mmHg 88%
    20:00 +15°C° 0 mm 1 mps 720 mmHg 89%
    21:00 +15°C° 0 mm 1 mps 720 mmHg 90%
    22:00 +14°C° 0 mm 1 mps 720 mmHg 91%
    23:00 +14°C° 0 mm 1 mps 720 mmHg 92%

    23 September, Monday

    Time Temperature Precipitation Wind Pressure Humidity
    00:00 +14°C° 0 mm 1 mps 720 mmHg 92%
    01:00 +14°C° 0 mm 1 mps 719 mmHg 92%
    02:00 +15°C° 0 mm 1 mps 719 mmHg 91%
    03:00 +15°C° 0 mm 1 mps 719 mmHg 90%
    04:00 +15°C° 0 mm 1 mps 719 mmHg 89%
    05:00 +15°C° 0 mm 1 mps 720 mmHg 88%
    06:00 +16°C° 0 mm 1 mps 720 mmHg 87%
    07:00 +16°C° 0 mm 2 mps 720 mmHg 86%
    08:00 +18°C° 0.1 mm 1 mps 720 mmHg 80%
    09:00 +20°C° 0.1 mm 1 mps 721 mmHg 75%
    10:00 +21°C° 0.1 mm 1 mps 722 mmHg 69%
    11:00 +19°C° 0.4 mm 2 mps 721 mmHg 73%
    12:00 +18°C° 0.4 mm 2 mps 721 mmHg 77%
    13:00 +17°C° 0.4 mm 2 mps 721 mmHg 80%
    14:00 +16°C° 0.5 mm 2 mps 721 mmHg 83%
    15:00 +15°C° 0.5 mm 2 mps 721 mmHg 86%
    16:00 +14°C° 0.5 mm 1 mps 721 mmHg 89%
    17:00 +14°C° 0.1 mm 1 mps 721 mmHg 90%
    18:00 +14°C° 0.1 mm 1 mps 722 mmHg 90%
    19:00 +14°C° 0.1 mm 1 mps 722 mmHg 90%
    20:00 +13°C° 0 mm 1 mps 723 mmHg 90%
    21:00 +12°C° 0 mm 1 mps 723 mmHg 90%
    22:00 +12°C° 0 mm 1 mps 723 mmHg 90%
    23:00 +11°C° 0 mm 1 mps 723 mmHg 89%

    24 September, Tuesday

    Time Temperature Precipitation Wind Pressure Humidity
    00:00 +11°C° 0 mm 1 mps 723 mmHg 88%
    01:00 +11°C° 0 mm 1 mps 723 mmHg 88%
    02:00 +11°C° 0 mm 1 mps 723 mmHg 87%
    03:00 +11°C° 0 mm 1 mps 723 mmHg 87%
    04:00 +11°C° 0 mm 1 mps 723 mmHg 86%
    05:00 +11°C° 0 mm 1 mps 723 mmHg 85%
    06:00 +11°C° 0 mm 1 mps 723 mmHg 84%
    07:00 +12°C° 0 mm 1 mps 723 mmHg 83%
    08:00 +13°C° 0 mm 1 mps 723 mmHg 79%
    09:00 +15°C° 0 mm 1 mps 724 mmHg 75%
    10:00 +15°C° 0 mm 0 mps 724 mmHg 71%
    11:00 +15°C° 0 mm 0 mps 724 mmHg 69%
    12:00 +16°C° 0 mm 0 mps 724 mmHg 68%
    13:00 +16°C° 0 mm 0 mps 723 mmHg 67%
    14:00 +17°C° 0 mm 0 mps 723 mmHg 65%
    15:00 +17°C° 0 mm 0 mps 723 mmHg 63%
    16:00 +18°C° 0 mm 0 mps 723 mmHg 61%
    17:00 +17°C° 0 mm 0 mps 723 mmHg 66%
    18:00 +15°C° 0 mm 0 mps 723 mmHg 71%
    19:00 +15°C° 0 mm 1 mps 723 mmHg 76%
    20:00 +15°C° 0 mm 1 mps 723 mmHg 75%
    21:00 +15°C° 0 mm 1 mps 723 mmHg 73%
    22:00 +15°C° 0 mm 1 mps 723 mmHg 72%
    23:00 +15°C° 0 mm 1 mps 723 mmHg 73%
    Show more